Location: Girenbad
(47.4524°N, 8.8479°E)
Time: 00:25:06
(UTC+00:00)

Daily predictions for brighter satellites

Satellite Brightness Start Highest point End
(mag) Time Altitude Azimuth Time Altitude Azimuth Time Altitude Azimuth
COSMOS 2406 3.4 03:52:21 63° SSE 03:52:21 63° SSE 03:57:02 10° SSE
Meteor 2-2 Rocket 4.3 03:53:01 68° S 03:53:01 68° S 03:57:58 10° S
Cosmos 2082 Rocket 2.4 03:52:50 56° N 03:53:47 66° ENE 03:59:22 10° SE
Cosmos 2344 4.1 03:47:37 10° SSW 03:54:51 53° ESE 04:02:15 10° NE
COSMOS 2455 3.0 03:57:05 60° SSW 03:57:05 60° SSW 04:02:12 10° SSE
Cosmos 1891 Rocket 4.5 03:51:33 13° N 03:57:30 89° W 04:03:59 10° S
Cosmos 1842 Rocket 4.3 03:58:55 48° SE 03:58:55 48° SE 04:02:19 10° SSE
Cosmos 1513 Rocket 4.4 04:02:48 16° NNW 04:07:58 80° W 04:14:21 10° S
MOS 1-B Rocket 4.1 04:03:43 10° SSE 04:10:26 77° ENE 04:16:19 10° NNW
Cosmos 2034 Rocket 4.1 04:07:44 10° N 04:13:58 75° E 04:20:13 10° SSE
Cosmos 1900 4.3 04:13:44 70° NNW 04:14:17 83° NE 04:19:19 10° SE
Cosmos 2278 Rocket 2.0 04:13:38 65° WSW 04:14:20 74° WNW 04:20:02 10° NNE
USA 215 3.2 04:09:41 10° SE 04:16:10 66° SW 04:17:51 49° W
Cosmos 1943 Rocket 4.0 04:14:00 10° SSE 04:18:56 32° ESE 04:23:54 10° NE
CZ-2C R/B 3.0 04:14:52 10° SSE 04:20:22 68° ENE 04:25:47 10° N
BREEZE M DEB (TANK) 3.1 04:21:17 69° W 04:21:48 86° NNW 04:24:40 10° ENE
Cosmos 1072 Rocket 4.4 04:18:58 19° NNW 04:23:24 63° W 04:29:24 10° S
SKYMED 2 3.8 04:19:26 10° SSE 04:23:44 68° ENE 04:26:01 27° N
Cosmos 540 Rocket 3.3 04:25:26 60° WNW 04:26:09 69° WSW 04:31:14 10° S
Cosmos 2346 Rocket 4.4 04:23:28 10° SSW 04:29:44 74° W 04:36:02 10° N
Cosmos 2221 3.8 04:32:05 26° SSW 04:32:05 26° SSW 04:34:10 10° S
Cosmos 1933 4.0 04:27:43 18° N 04:30:30 54° ENE 04:34:25 10° SSE
Cosmos 1833 Rocket 3.7 04:34:00 27° SW 04:34:00 27° SW 04:37:20 10° SSW
Cosmos 1741 Rocket 3.8 04:30:04 14° SSW 04:34:30 78° WNW 04:39:46 10° NNE
SL-8 R/B 3.6 04:35:05 54° WSW 04:36:09 86° S 04:40:58 10° ENE
CZ-4B R/B 4.4 04:32:14 10° NNE 04:36:35 66° ESE 04:41:01 10° S
Tsikada Rocket 4.3 04:30:37 10° S 04:36:43 69° E 04:42:56 10° NNE
Meteor 1-31 Rocket 3.2 04:34:16 10° NNE 04:38:07 64° ESE 04:41:58 10° S
Cosmos 2151 3.3 04:38:00 10° S 04:42:14 69° E 04:46:32 10° NNE
Cosmos 1812 4.4 04:46:13 10° N 04:49:45 33° ENE 04:53:15 10° SE
CZ-4C R/B 2.9 04:47:04 10° SSE 04:50:15 72° ENE 04:51:33 32° N
Cosmos 841 Rocket 3.5 04:48:36 33° NW 04:50:42 54° WSW 04:55:42 10° S
H-2A R/B 3.4 04:52:47 10° SE 04:56:41 38° ENE 05:00:40 10° N
SJ-12 3.9 04:53:34 10° N 04:57:38 58° WNW 05:01:42 10° SSW
Cosmos 2098 Rocket 4.4 04:54:57 10° SSE 04:58:01 34° E 05:01:45 10° NNE
Envisat 2.9 04:53:29 10° N 04:58:33 68° WNW 05:03:34 10° SSW
Cosmos 1570 Rocket 3.9 05:01:27 14° NNW 05:05:55 75° WSW 05:11:09 10° SSE
YAOGAN 6 3.0 05:03:18 10° N 05:06:46 38° WNW 05:10:11 10° SW
Cosmos 1076 Rocket 3.8 05:03:12 10° SSW 05:07:22 43° WNW 05:11:34 10° N
DMSP B5D2-2 4.2 05:04:20 10° SSE 05:09:32 75° ENE 05:14:46 10° N
Cosmos 2369 Rocket 3.9 05:05:03 10° S 05:10:05 36° ESE 05:15:10 10° NE
CBERS 1 LM4 rocket 4.3 05:05:44 10° N 05:10:27 61° WNW 05:15:15 10° SSW
COSMO-SKYMED 1 3.0 05:07:50 10° SSW 05:11:54 39° W 05:14:38 19° NW
Aureole 1 Rocket 2.7 05:10:36 10° S 05:13:43 60° ESE 05:16:39 10° NNE
Cosmos 1867 3.5 05:10:51 17° NW 05:15:09 87° SW 05:20:37 10° SE
Cosmos 1241 Rocket 4.4 05:10:06 14° NW 05:15:34 88° NE 05:21:46 10° SE
FALCON 9 DEB 4.3 05:13:21 10° SSW 05:15:59 34° SE 05:18:38 10° ENE
APEX 2.2 05:16:51 33° NW 05:17:56 74° WSW 05:20:50 10° SSE
Cosmos 921 Rocket 3.4 05:13:49 10° NNW 05:18:10 64° ENE 05:22:32 10° SSE
Cosmos 2084 Rocket 3.1 05:14:30 10° SW 05:18:21 88° NW 05:22:15 10° NE
NOSS 3-2 (A) 3.3 05:13:47 10° SW 05:19:23 83° NW 05:25:57 10° NE
H-2A R/B 3.4 05:16:26 10° N 05:19:42 31° WNW 05:22:58 10° SW
Cosmos 1328 Rocket 4.5 05:15:47 10° N 05:20:06 50° ENE 05:24:21 10° SSE
FALCON 9 DEB 3.8 05:19:06 10° SW 05:21:50 43° SE 05:24:35 10° ENE
NOSS 3-2 (C) 3.8 05:17:25 10° SSW 05:22:52 65° ESE 05:29:13 10° NE
CENTAUR R/B 2.6 05:20:11 10° SW 05:26:04 88° SE 05:33:14 10° NE
Cosmos 1151 Rocket 3.1 05:21:58 10° N 05:26:22 80° E 05:30:45 10° SSE
Cosmos 968 Rocket 3.6 05:21:57 10° SSW 05:27:07 78° ESE 05:32:16 10° NNE
CZ-4B R/B 2.6 05:26:21 10° NNE 05:30:01 82° ESE 05:33:35 10° SSW
Cosmos 2208 Rocket 4.2 05:24:47 10° NNW 05:30:09 59° WSW 05:35:27 10° S
Gbstr 26 Del rocket 3.1 05:28:19 21° WNW 05:30:45 55° SSW 05:35:03 10° SE
Meteor 2-6 Rocket 4.3 05:25:40 10° N 05:31:11 75° ENE 05:36:33 10° SSE
Meteor 2-3 Rocket 3.8 05:26:00 10° SSW 05:31:29 53° WNW 05:37:04 10° N
Landsat 5 4.4 05:28:26 10° SSW 05:32:26 31° W 05:36:29 10° NNW
Cosmos 1814 Rocket 4.5 05:28:34 13° NW 05:32:48 38° WSW 05:37:31 10° S
Cosmos 2082 Rocket 3.4 05:34:44 16° WNW 05:37:20 21° W 05:41:27 10° SSW
NOSS 8 (A) 4.3 05:36:50 10° WSW 05:40:03 48° NW 05:42:54 10° NNE
Meteor PRIRODA 3.5 05:37:14 10° N 05:40:49 64° WNW 05:44:23 10° SSW
CZ-4B R/B 2.2 05:37:53 10° SSE 05:41:11 53° ENE 05:44:28 10° N
Cosmos 2297 3.7 05:36:38 10° SW 05:42:20 64° WNW 05:48:03 10° NNE
USA 238 DEB 3.6 05:44:39 10° SW 05:51:10 80° NW 05:58:06 10° NE
USA 238 3.6 05:44:45 10° SW 05:51:16 81° NW 05:58:12 10° NE
Cosmos 1515 Rocket 4.2 05:48:41 10° N 05:53:03 60° ENE 05:57:22 10° SSE
Cosmos 1782 3.8 05:49:44 10° NNW 05:53:07 27° W 05:56:26 10° SSW
NOAA 11 4.4 05:49:41 10° N 05:54:57 51° WNW 06:00:13 10° SW
CZ-2C R/B 2.9 05:52:03 10° N 05:56:44 58° WNW 06:01:31 10° SSW
Cosmos 1862 3.2 05:53:02 10° SSW 05:56:58 68° W 06:00:55 10° N
Okean O Rocket 4.1 05:54:30 10° NE 05:58:15 26° E 06:01:57 10° SSE
NOAA 6 4.2 05:54:13 10° NNE 05:59:22 83° ESE 06:04:29 10° SSW
Cosmos 2278 Rocket 3.6 05:55:46 10° W 05:59:28 17° NW 06:03:10 10° N
CZ-2C R/B 4.0 05:57:10 10° SW 06:01:07 20° W 06:05:03 10° NW
Cosmos 1943 Rocket 2.5 05:57:03 10° SW 06:02:29 47° NW 06:07:58 10° NNE
Meteor 2-15 4.4 05:58:10 10° N 06:04:16 82° W 06:10:19 10° S
Okean 3 Rocket 3.7 06:00:48 10° SSW 06:05:17 62° WNW 06:09:49 10° N
Cosmos 1486 Rocket 4.0 06:01:00 10° SSW 06:06:19 82° WNW 06:11:39 10° NNE
Cosmos 2344 3.9 06:02:28 10° WSW 06:09:27 43° NNW 06:17:16 10° NE
Cosmos 1656 Rocket 3.9 06:04:25 10° SSW 06:09:48 75° ESE 06:15:15 10° NNE
CORIOLIS 4.3 06:04:23 10° NNE 06:09:53 88° ESE 06:15:21 10° SSW
FengYun 1-2 T 4.2 06:04:48 10° N 06:10:18 70° WNW 06:15:44 10° SSW
ADEOS 4.2 06:05:49 10° N 06:10:26 33° WNW 06:15:02 10° SW
Cosmos 1833 4.4 06:06:14 10° NNW 06:11:56 82° ENE 06:17:40 10° SSE
BREEZE-M DEB (TANK) 3.7 06:12:45 10° SW 06:22:03 55° SSE 06:25:03 10° E
